Change the Weather History Date:

Monday, September 2, 2013

  Actual Average Record
Temperature  
Mean Temperature 80 °F -  
Max Temperature 87 °F 81 °F 87 °F (2013)
Min Temperature 73 °F 73 °F 73 °F (1998)
Cooling Degree Days 15    
Growing Degree Days 30 (Base 50)    
Moisture  
Dew Point 67 °F    
Average Humidity 65    
Maximum Humidity 80    
Minimum Humidity 52    
Precipitation  
Precipitation 0.00 in - - ()
Sea Level Pressure  
Sea Level Pressure 30.01 in    
Wind  
Wind Speed 10 mph (ENE)    
Max Wind Speed 15 mph    
Max Gust Speed 23 mph    
Visibility 10 miles    
Events      
Averages and records for this station are not official NWS values.
T = Trace of Precipitation, MM = Missing Value Source: NWS Daily Summary

Daily Weather History Graph

Daily Weather History Graph

Search for Another Location

Airport or City:

Trip Planner

Search our weather history database for the weather conditions in past years. The results will help you decide how hot, cold, wet, or windy it might be!

Date:

Astronomy

Sep. 02, 2013 Rise Set
Actual Time 6:14 AM HST 6:45 PM HST
Civil Twilight 5:52 AM HST 7:08 PM HST
Nautical Twilight 5:25 AM HST 7:34 PM HST
Astronomical Twilight 4:59 AM HST 8:01 PM HST
Moon 3:53 AM HST (9/2) 4:58 PM HST (9/2)
Length of Visible Light 13h 16m
Length of Day
12h 31m
Waning Crescent, 7% of the Moon is Illuminated
Sep 2
Waning Crescent
Sep 5
New
Sep 12
First Quarter
Sep 19
Full
Sep 26
Last Quarter

Hourly Weather History & Observations

Time (HST) Temp. Heat Index Dew Point Humidity Pressure Visibility Wind Dir Wind Speed Gust Speed Precip Events Conditions
12:04 AM - - - N/A% 30.03 in 6.2 mi ENE 9.2 mph 20.7 mph N/A   Scattered Clouds
12:57 AM - - - N/A% 30.01 in 10.0 mi ENE 10.4 mph 16.1 mph N/A   Partly Cloudy
1:57 AM - - - N/A% 30.00 in 10.0 mi East 10.4 mph 18.4 mph N/A   Scattered Clouds
2:57 AM - - - N/A% 29.98 in 10.0 mi East 10.4 mph 18.4 mph N/A   Partly Cloudy
3:57 AM - - - N/A% 29.98 in 10.0 mi East 8.1 mph 17.3 mph N/A   Mostly Cloudy
4:57 AM 73.4 °F - 66.0 °F 78% 29.98 in 10.0 mi ENE 8.1 mph - N/A   Clear
5:57 AM 73.4 °F - 66.0 °F 78% 29.99 in 10.0 mi ENE 11.5 mph 18.4 mph N/A   Overcast
6:57 AM 73.4 °F - 66.9 °F 80% 30.01 in 10.0 mi ENE 12.7 mph 21.9 mph N/A   Overcast
7:57 AM 75.2 °F - 68.0 °F 78% 30.02 in 10.0 mi East 12.7 mph 18.4 mph N/A   Mostly Cloudy
8:57 AM 81.3 °F 83.6 °F 66.9 °F 61% 30.03 in 10.0 mi ENE 9.2 mph 18.4 mph N/A   Mostly Cloudy
9:57 AM 82.8 °F 85.8 °F 68.0 °F 61% 30.04 in 10.0 mi East 9.2 mph 19.6 mph N/A   Scattered Clouds
10:57 AM 83.1 °F 86.1 °F 68.0 °F 60% 30.03 in 10.0 mi ENE 15.0 mph 23.0 mph N/A   Overcast
11:57 AM 84.9 °F 87.6 °F 66.9 °F 55% 30.02 in 10.0 mi ENE 11.5 mph 19.6 mph N/A   Scattered Clouds
12:57 PM 85.6 °F 88.8 °F 68.0 °F 55% 30.00 in 10.0 mi ENE 12.7 mph 20.7 mph N/A   Partly Cloudy
1:57 PM 85.6 °F 88.2 °F 66.9 °F 53% 29.98 in 10.0 mi ENE 11.5 mph 19.6 mph N/A   Clear
2:57 PM 87.4 °F 90.8 °F 68.0 °F 52% 29.97 in 10.0 mi ENE 11.5 mph 18.4 mph N/A   Partly Cloudy
3:57 PM 85.6 °F 88.8 °F 68.0 °F 55% 29.96 in 10.0 mi ENE 9.2 mph 17.3 mph N/A   Scattered Clouds
4:57 PM 84.9 °F 88.2 °F 68.0 °F 57% 29.96 in 10.0 mi ENE 9.2 mph - N/A   Scattered Clouds
5:57 PM 81.1 °F 83.5 °F 66.9 °F 62% 29.98 in 10.0 mi ENE 6.9 mph - N/A   Scattered Clouds
6:57 PM 79.9 °F - 66.9 °F 64% 30.00 in 10.0 mi ENE 9.2 mph - N/A   Scattered Clouds
7:57 PM - - - N/A% 30.01 in 10.0 mi East 6.9 mph - N/A   Scattered Clouds
8:57 PM 77.0 °F - 66.0 °F 69% 30.03 in 10.0 mi ENE 10.4 mph - N/A   Scattered Clouds
9:57 PM 75.7 °F - 66.0 °F 72% 30.05 in 10.0 mi East 6.9 mph - N/A   Scattered Clouds
10:57 PM 75.7 °F - 66.0 °F 72% 30.04 in 10.0 mi ENE 8.1 mph - N/A   Scattered Clouds
11:57 PM 75.4 °F - 66.0 °F 73% 30.04 in 10.0 mi ENE 6.9 mph - N/A   Partly Cloudy